Regional Weather Roundup
Issued by NWS

Home | Current Version | Previous Version | Graphics & Text | Print | Product List | Glossary Off
Versions: 1 2 3 4 5 6 7 8 9 10 11 12 13 14 15 16 17 18 19 20 21 22 23 24 25 26 27 28 29 30 31 32 33 34 35 36 37 38 39 40 41 42 43 44 45 46 47 48 49 50

866
ASUS43 KDMX 251406
RWRIA

WEATHER ROUNDUP FOR IOWA
NATIONAL WEATHER SERVICE DES MOINES IA
800 AM CST SAT FEB 25 2017

NOTE: "FAIR" INDICATES FEW OR NO CLOUDS BELOW 12,000 FEET WITH NO
SIGNIFICANT WEATHER AND/OR OBSTRUCTIONS TO VISIBILITY.

* - THESE STATIONS ARE NOT NWS STATIONS...THUS NOT UNDER NWS
QUALITY CONTROL.  THEY ALSO DO NOT REPORT WEATHER SUCH
AS PRECIPITATION OR FOG.

IAZ001>003-012>014-020>022-031>034-043>046-251500-
   NORTHWEST IOWA

CITY           SKY/WX    TMP DP  RH WIND       PRES   REMARKS
CARROLL *      CLEAR     18  14  86 NW14      30.06R WCI   4
CHEROKEE *     CLEAR     14  11  86 SW5       30.07R WCI   7
DENISON *      CLEAR     16  12  86 CALM      30.06R
LE MARS *      CLEAR     12  10  92 CALM      30.09S
SHELDON *      CLEAR     12  14 100 W6        30.03S WCI   3
SIOUX CITY     MOCLDY    13  10  88 NW3       30.10R
SPENCER        CLEAR     12   8  84 W8        30.03R WCI   0
STORM LAKE *   CLEAR     10   9  92 NW13      30.04R WCI  -5
$$

IAZ055>058-069>071-079>083-090>094-251500-
   SOUTHWEST IOWA

CITY           SKY/WX    TMP DP  RH WIND       PRES   REMARKS
ATLANTIC *     CLEAR     18  12  79 NW12      30.09R WCI   5
AUDUBON *      CLEAR     16  12  86 NW8       30.06R WCI   5
CLARINDA *     SUNNY     19  14  79 NW7       30.14R WCI  10
COUNCIL BLFS * CLEAR     18  16  93 NW8       30.10R WCI   7
CRESTON *      SUNNY     18  10  73 NW12      30.07R WCI   5
HARLAN  *      CLEAR     16  14  93 NW13      30.12R WCI   2
LAMONI         SUNNY     16  11  80 W9        30.06R WCI   4
RED OAK *      CLEAR     16  14  93 CALM      30.12R
SHENANDOAH *   CLEAR     18  14  86 W7        30.14R WCI   8
$$

IAZ047>049-059>061-072>074-084-251500-
   CENTRAL IOWA

CITY           SKY/WX    TMP DP  RH WIND       PRES   REMARKS
AMES           SUNNY     16  10  77 NW17G23   30.02R WCI   0
ANKENY *       SUNNY     16   9  73 NW12G18   30.05R WCI   3
BOONE *        SUNNY     16   7  67 NW14G23   30.02R WCI   1
CHARITON *     SUNNY     18  12  79 NW16      30.04R WCI   3
DES MOINES     MOSUNNY   18   9  68 NW17      30.04R WCI   3
GRINNELL*      SUNNY     16  11  80 NW17      30.00R WCI   0
KNOXVILLE *    SUNNY     18   9  68 NW14G21   30.02R WCI   4
MARSHALLTOWN   SUNNY     15   9  76 NW22      29.99R WCI  -3
NEWTON *       SUNNY     16   9  73 NW20      30.00R WCI  -1
PELLA *        SUNNY     17  10  74 NW9G18    30.04R WCI   6
PERRY *          N/A     18  11  75 NW13G20   30.05R WCI   5
$$

IAZ004>006-015-016-023>025-035-036-251500-
   NORTH CENTRAL IOWA

CITY           SKY/WX    TMP DP  RH WIND       PRES   REMARKS
ALGONA *       SNOW      14   9  79 NW17      30.00R VSB 1/2 WCI  -3
CLARION *      SUNNY     12   7  79 NW13      30.00R WCI  -3
ESTHERVILLE    CLEAR     11   6  81 NW16      30.01R WCI  -6
FORT DODGE *   SUNNY     12   5  73 NW5       30.03R WCI   4
MASON CITY     SUNNY     12   7  80 NW22      29.97R WCI  -7
FOREST CITY *    N/A     12   7  79 NW14      29.97R WCI  -3
WEBSTER CITY * SUNNY     14   7  73 NW14      30.00R WCI  -1
IOWA FALLS *     N/A     15   9  76 NW23      29.99R WCI  -3
$$

IAZ007>011-017>019-026>030-037>042-050>054-066-251500-
   NORTHEAST IOWA

CITY           SKY/WX    TMP DP  RH WIND       PRES   REMARKS
CEDAR RAPIDS   SUNNY     16  12  84 NW17G24   29.94R WCI   0
CHARLES CITY * SUNNY     14   9  79 NW17G23   29.94R WCI  -3
CLINTON *      MOSUNNY   19  13  77 W18       29.89R WCI   4
DECORAH *      SUNNY     14   7  73 NW10G21   29.87R WCI   1
DUBUQUE        PTSUNNY   16  10  77 NW17      29.86R WCI   0
MONTICELLO *   SUNNY     18   9  68 NW15G23   29.91R WCI   3
OELWEIN *      SUNNY     16  10  79 NW23      29.91R WCI  -2
WATERLOO       SUNNY     16   9  74 NW21G28   29.95R WCI  -1
$$

IAZ064-065-067-068-078-251500-
   EAST CENTRAL IOWA

CITY           SKY/WX    TMP DP  RH WIND       PRES   REMARKS
DAVENPORT      SUNNY     19  11  70 W23G30    29.91R WCI   2
IOWA CITY      SUNNY     19  11  70 NW17      29.98R WCI   4
MUSCATINE *    SUNNY     21  14  73 NW16G24   29.98R WCI   7
QUAD CITIES    SUNNY     22  12  65 W16G25    29.92R WCI   8
$$

IAZ062-063-075>077-085>089-095>099-251500-
   SOUTHEAST IOWA

CITY           SKY/WX    TMP DP  RH WIND       PRES   REMARKS
BURLINGTON     SUNNY     21  14  74 NW13G23   29.97R WCI   9
FAIRFIELD *    SUNNY     18  10  73 NW15G22   30.00R WCI   3
KEOKUK *       MOSUNNY   23  16  74 W13G22    30.01R WCI  11
CENTERVILLE *    N/A     18  12  79 W12       30.05R WCI   5
OTTUMWA        SUNNY     18  10  71 NW15      30.02R WCI   4
WASHINGTON *   SUNNY     18  14  86 W16       30.00R WCI   3
$$

ABBREVIATIONS USED IN REMARKS
   TC - TEMPERATURES IN CELSIUS
  WCI - WIND CHILL INDEX
   HX - HEAT INDEX
  VSB - VISIBILITY
$$





USA.gov is the U.S. government's official web portal to all federal, state and local government web resources and services.